Flag for Canada Weather past 2 weeks in Richmond Hill, Ontario, Canada

Now
5 °F

Passing clouds.


Feels Like: -7 °F
Forecast: -1 / 23 °F
Wind: 7 mph from Northwest

Location: Toronto Buttonville

Current Time: Jan 30, 2015 at 8:29:52 PM

Latest Report: Jan 30, 2015 at 8:00 PM


Visibility: 15 mi

Pressure: 30.39 "Hg

Humidity: 78%

Dew point: 0 °F

Location of Richmond HillLocation

Historic Weather in Richmond Hill — Graph

°F

Richmond Hill temperature yesterday

Maximum temperature yesterday: 32 °F (at 12:00 PM)
Minimum temperature yesterday: 19 °F (at 12:00 AM)
Average temperature yesterday: 27 °F

Past Weeks' High & Low Weather Summary

 TemperatureHumidityPressure
High41 °F (Jan 18, 7:00 AM)100% (Jan 18, 10:00 AM)30.39 "Hg (Jan 18, 10:00 AM)
Low3 °F (Jan 21, 6:00 AM)26% (Jan 28, 4:00 PM)29.47 "Hg (Jan 24, 3:00 PM)
Average20 °F70%30.01 "Hg
* Reported Jan 15 7:00 PM — Jan 30 7:00 PM, Richmond Hill, Weather by CustomWeather, © 2014

Note: Actual official high and low records may vary slightly from our data, if they occured in-between our weather recording intervals... More about our weather records

Advertising

Richmond Hill weather history for previous 24 hours

 ConditionsComfort  
Time TempWeatherWind HumidityBarometerVisibility
7:00 PM
Jan 30
7 °FPassing clouds.9 mph72%30.37 "Hg15 mi
6:00 PM9 °FPassing clouds.13 mph66%30.36 "Hg15 mi
5:00 PM9 °FPassing clouds.14 mph66%30.33 "Hg15 mi
4:00 PM9 °FScattered clouds.17 mph66%30.32 "Hg15 mi
3:55 PMN/AScattered clouds.16 mphN/AN/A15 mi
3:00 PM10 °FPassing clouds.21 mph61%30.30 "Hg15 mi
2:00 PM10 °FPassing clouds.16 mph56%30.27 "Hg15 mi
1:00 PM10 °FPassing clouds.18 mph52%30.26 "Hg15 mi
12:00 PM9 °FPassing clouds.20 mph56%30.24 "Hg15 mi
11:00 AM7 °FPassing clouds.29 mph56%30.20 "Hg15 mi
10:00 AM9 °FPassing clouds.25 mph72%30.17 "Hg15 mi
9:00 AM9 °FPartly sunny.16 mph72%30.17 "Hg15 mi
8:00 AM10 °FLight snow. Partly sunny.21 mph72%30.14 "Hg15 mi
7:55 AMN/ALight snow.9 mphN/AN/A15 mi
7:00 AM12 °FLight snow. Passing clouds.21 mph73%30.10 "Hg12 mi
6:00 AM16 °FOvercast.22 mph79%30.05 "Hg12 mi
5:00 AM23 °FMostly cloudy.22 mph80%30.00 "Hg15 mi
4:00 AM25 °FOvercast.14 mph80%29.96 "Hg15 mi
3:00 AM27 °FMostly cloudy.15 mph80%29.93 "Hg15 mi
2:00 AM27 °FOvercast.16 mph80%29.90 "Hg12 mi
1:00 AM28 °FOvercast.14 mph80%29.88 "Hg12 mi
12:00 AM28 °FOvercast.9 mph80%29.85 "Hg10 mi
11:00 PM
Jan 29
28 °FOvercast.8 mph86%29.83 "Hg10 mi
10:00 PM28 °FOvercast.10 mph86%29.81 "Hg10 mi
9:45 PMN/ALight snow.6 mphN/AN/A7 mi
9:00 PM28 °FLight snow. Ice fog.6 mph93%29.79 "Hg2 mi
8:00 PM28 °FLight snow. Ice fog.7 mph93%29.77 "Hg1 mi
Weather by CustomWeather, © 2014

See weather overviewHow to use our weather pages